Home > Time Zones > World Clock > Weather > China > Hefei > Past weeks

Flag for China Weather past 2 weeks in Hefei, Anhui, China

Now
68 °F

Fog.


Feels Like: 68 °F
Forecast: 65 / 81 °F
Wind: 6 mph from Northwest

Location: Hefei Airport

Current Time: May 30, 2015 at 7:21:52 AM

Latest Report: May 30, 2015 at 6:00 AM


Visibility: 2 mi

Pressure: 29.74 "Hg

Humidity: 100%

Dew point: 68 °F

Location of HefeiLocation

Historic Weather in Hefei — Graph

°F

Hefei temperature yesterday

Maximum temperature yesterday: 72 °F (at 12:00 AM)
Minimum temperature yesterday: 68 °F (at 11:00 PM)
Average temperature yesterday: 71 °F

Past Weeks' High & Low Weather Summary

 TemperatureHumidityPressure
High90 °F (May 19, 2:00 PM)100% (May 15, 7:00 AM)30.04 "Hg (May 15, 7:00 AM)
Low59 °F (May 21, 3:00 AM)26% (May 20, 2:00 PM)29.59 "Hg (May 18, 3:00 AM)
Average72 °F72%29.77 "Hg
* Reported May 15 6:00 AM — May 30 6:00 AM, Hefei, Weather by CustomWeather, © 2015

Note: Actual official high and low records may vary slightly from our data, if they occured in-between our weather recording intervals... More about our weather records

Advertising

Hefei weather history for previous 24 hours

 ConditionsComfort  
Time TempWeatherWind HumidityBarometerVisibility
6:00 AM
Sat, May 30
68 °FFog.6 mph100%29.74 "Hg2 mi
5:00 AM68 °FFog.6 mph100%29.71 "Hg2 mi
4:00 AM68 °FFog.6 mph100%29.71 "Hg2 mi
3:00 AM68 °FFog.6 mph100%29.71 "Hg2 mi
2:00 AM68 °FFog.6 mph100%29.71 "Hg1 mi
1:00 AM68 °FFog.6 mph100%29.74 "Hg1 mi
12:00 AM68 °FFog.6 mph100%29.71 "Hg1 mi
11:00 PM
Fri, May 29
68 °FFog.6 mph100%29.74 "Hg2 mi
10:00 PM70 °FFog.3 mph94%29.74 "Hg2 mi
9:00 PM70 °FFog.3 mph94%29.71 "Hg2 mi
8:00 PM70 °FFog.3 mph94%29.71 "Hg2 mi
7:00 PM70 °FFog.6 mph94%29.68 "Hg2 mi
6:00 PM70 °FLight rain. Fog.10 mph94%29.65 "Hg2 mi
5:00 PM72 °FLight rain. Fog.8 mph94%29.62 "Hg1 mi
4:00 PM72 °FLight rain. Fog.3 mph94%29.65 "Hg1 mi
3:00 PM72 °FLight rain. Fog.3 mph94%29.65 "Hg2 mi
2:00 PM72 °FFog.8 mph94%29.62 "Hg2 mi
1:00 PM72 °FFog.8 mph94%29.65 "Hg1 mi
12:00 PM72 °FFog.6 mph94%29.65 "Hg1 mi
11:00 AM72 °FSprinkles. Fog.1 mph94%29.65 "Hg1 mi
10:00 AM70 °FSprinkles. Fog.6 mph100%29.65 "Hg1 mi
9:00 AM70 °FRain showers. Fog.3 mph100%29.65 "Hg1 mi
8:00 AM70 °FThunderstorms. Fog.8 mph100%29.65 "Hg1 mi
7:00 AM72 °FLight rain. Fog.8 mph94%29.62 "Hg1 mi
Weather by CustomWeather, © 2015

See weather overviewHow to use our weather pages